Regional Weather Roundup
Issued by NWS

Home | Current Version | Previous Version | Text Only | Print | Product List | Glossary Off
Versions: 1 2 3 4 5 6 7 8 9 10 11 12 13 14 15 16 17 18 19 20 21 22 23 24 25 26 27 28 29 30 31 32 33 34 35 36 37 38 39 40 41 42 43 44 45 46 47 48 49 50

000
ASUS43 KMPX 221110
RWRMN
WEATHER ROUNDUP FOR MINNESOTA
NATIONAL WEATHER SERVICE TWIN CITIES/CHANHASSEN MN
600 AM CDT FRI AUG 22 2014


NOTE: "FAIR" INDICATES FEW OR NO CLOUDS BELOW 12,000 FEET WITH NO
SIGNIFICANT WEATHER AND/OR OBSTRUCTIONS TO VISIBILITY. N/A MEANS
CURRENT SKY AND/OR WEATHER CONDITIONS ARE NOT AVAILABLE.

MNZ060>063-068>070-221200-
   Twin Cities Metro

CITY           SKY/WX    TMP DP  RH WIND       PRES   REMARKS
TWIN CITIES    CLOUDY    72  70  93 N7        29.90S
ST PAUL        CLOUDY    72  70  93 NW9       29.90R
CRYSTAL        CLOUDY    71  69  93 N6        29.89S FOG
BLAINE         CLOUDY    70  70 100 NW6       29.91S FOG
LAKEVILLE      CLOUDY    70  70 100 NW8       29.90S FOG
EDEN PRAIRIE   CLOUDY    71  69  93 N3        29.90R FOG
SOUTH ST PAUL  CLOUDY    73  70  91 N3        29.90R
LAKE ELMO      CLOUDY    72  70  94 NW7       29.91R FOG
$$
MNZ001>005-007-008-013>017-022>024-027-028-221200-
   Northwest Minnesota

CITY           SKY/WX    TMP DP  RH WIND       PRES   REMARKS
BEMIDJI        CLOUDY    66  65  96 CALM      29.95R
HALLOCK        PTCLDY    66  64  94 N5        29.93S
ROSEAU         MOCLDY    66  63  88 NE3       29.94S
WARROAD        CLOUDY    66  64  94 E5        29.95R
THIEF RVR FALL CLOUDY    68  66  94 CALM      29.93R
CROOKSTON      FOG       68  66  94 N7        29.94R VSB 1/2
FOSSTON        CLOUDY    64  63  94 CALM      29.95R FOG
DETROIT LAKES  CLOUDY    68  68 100 CALM      29.96R FOG
MOORHEAD       FOG       66  66 100 CALM      29.94R VSB<1/4
PARK RAPIDS    PTCLDY    67  66  97 CALM      29.95R
MAHNOMEN       CLOUDY    67  67  99 CALM      29.95R FOG
$$
MNZ006-009>011-018-025>026-221200-
   North Central Minnesota

CITY           SKY/WX    TMP DP  RH WIND       PRES   REMARKS
BAUDETTE       CLOUDY    64  62  93 E5        29.94R
FLAG ISLAND    CLOUDY    66  63  88 E5        29.95R
INTL FALLS     CLOUDY    64  61  90 CALM      29.95S
WASKISH        CLOUDY    64  64 100 CALM      29.95R
BIG FORK       PTCLDY    63  61  94 CALM      29.96R
LONGVILLE      CLOUDY    64  63  94 CALM      29.95R FOG
GRAND RAPIDS   CLOUDY    63  61  94 CALM      29.96R
CRANE LAKE     CLOUDY    61  61 100 CALM      29.97R
ORR            CLOUDY    63  57  82 CALM      29.94R
COOK           CLOUDY    63  61  94 CALM      29.96R
WALKER         CLOUDY    66  65  96 CALM      29.95R
$$
MNZ012-019>021-037-221200-
   Northeast Minnesota

CITY           SKY/WX    TMP DP  RH WIND       PRES   REMARKS
DULUTH         DRZL/FOG  62  59  90 VRB3      29.94R VSB 1/2
ELY            CLOUDY    61  61 100 CALM      29.96R FOG
HIBBING        CLOUDY    65  61  87 CALM      29.96R
EVELETH        CLOUDY    63  61  94 NE3       29.96R
DULUTH HARBOR  DRIZZLE   61  59  94 E17       29.94S
TWO HARBORS    CLOUDY    61  55  82 NE5       29.93R FOG
SILVER BAY     CLOUDY    59  59 100 N6        29.93R FOG
GRAND MARAIS     N/A     61  59  93 E8        29.94R
G MARAIS ARPRT FOG       59  55  88 N5        29.99R VSB 1/2
$$
MNZ029>031-032-039>041-046>048-054>057-064-221200-
   West Central Minnesota

CITY           SKY/WX    TMP DP  RH WIND       PRES   REMARKS
FERGUS FALLS   CLOUDY    68  66  94 CALM      29.94R FOG
WHEATON        DRZL/FOG  63  63 100 NE5       29.95R VSB 1/4
MORRIS         FOG       68  68 100 CALM      29.92S VSB<1/4
ALEXANDRIA     CLOUDY    68  67  96 CALM      29.96R
ELBOW LAKE     CLOUDY    68  67  98 CALM      29.94R
WADENA         FOG       66  66 100 CALM      29.94S VSB 1
GLENWOOD       CLOUDY    66  66 100 N5        29.95R FOG
APPLETON       FOG       70  66  88 CALM      29.93R VSB 1/2
BENSON         CLOUDY    68  66  94 CALM      29.93R FOG
ORTONVILLE     CLEAR     66  64  94 CALM      29.93R FOG
MADISON        FOG       66  64  94 CALM      29.93R VSB 1/4
WILLMAR        FOG       72  68  88 N5        29.95R VSB 1/2
$$
MNZ033>034-036-042>043-049>051-058-059-221200-
   Central Minnesota

CITY           SKY/WX    TMP DP  RH WIND       PRES   REMARKS
ST CLOUD       FOG       70  68  93 NW5       29.93R VSB 1/2
SAUK CENTRE    CLOUDY    68  67  99 CALM      29.95R FOG
PAYNESVILLE    CLOUDY    66  67 100 CALM      29.95R FOG
AITKIN         HAZE      64  61  88 CALM      29.93S VSB 1/4
PINE RIVER     CLOUDY    64  64 100 CALM      29.97S
BRAINERD       CLOUDY    64  63  96 E3        29.94S FOG
STAPLES        CLOUDY    66  64  94 CALM      29.94S
LONG PRAIRIE   FOG       66  66 100 CALM      29.95R VSB 1/2
LITTLE FALLS   CLOUDY    64  63  94 CALM      29.94R FOG
LITCHFIELD     MOCLDY    70  70 100 CALM      29.94R FOG
BUFFALO        CLOUDY    70  68  93 CALM      29.93R FOG
MAPLE LAKE     PTCLDY    70  69  98 CALM      29.93R FOG
$$
MNZ037-044-045-052-053-221200-
   East Central Minnesota

CITY           SKY/WX    TMP DP  RH WIND       PRES   REMARKS
PRINCETON      CLOUDY    66  66 100 N5        29.93R FOG
MORA           CLOUDY    61  61 100 CALM      29.94R FOG
CAMBRIDGE      CLOUDY    66  59  77 N3        29.90R HAZE
RUSH CITY      CLOUDY    63  62  96 CALM      29.92R FOG
MOOSE LAKE     CLOUDY    61  59  94 NE6       29.92R FOG
HINCKLEY       CLOUDY    61  61 100 N3        29.92R FOG
CLOQUET        CLOUDY    61  59  94 E3        29.94S
MCGREGOR       CLOUDY    63  61  94 CALM      29.95R
$$
MNZ071>073-080-081-089-090-097-098-221200-
   Southwest Minnesota

CITY           SKY/WX    TMP DP  RH WIND       PRES   REMARKS
MONTEVIDEO     FOG       70  70 100 E3        29.94R VSB 1/4
GRANITE FALLS  FOG       69  69 100 CALM      29.94S VSB<1/4
CANBY          CLEAR     65  64  97 CALM      29.95R FOG
MARSHALL       CLEAR     64  61  88 W3        29.92S
REDWOOD FALLS  FOG       71  70  96 CALM      29.92R VSB 1/4
OLIVIA         FOG       70  68  94 CALM      29.92S VSB 1/2
PIPESTONE      CLEAR     66  64  94 CALM      29.95S FOG
WINDOM         PTCLDY    68  66  94 CALM      29.92S FOG
WORTHINGTON    CLEAR     64   9  11 N5        29.94S
JACKSON        FOG       70  68  94 CALM      29.92S VSB 1/4
TRACY          CLEAR     67  65  96 CALM      29.94R FOG
SLAYTON        PTCLDY    64  64  99 CALM      29.95S FOG
$$
MNZ065>067-074>077-082>085-091>093-221200-
   South Central Minnesota

CITY           SKY/WX    TMP DP  RH WIND       PRES   REMARKS
MANKATO        CLOUDY    72  66  83 N7        29.91R VSB 1/4
NEW ULM        FOG       72  72 100 NE3       29.91S VSB 1
ST JAMES       FOG       70  70 100 CALM      29.92R VSB 1/4
FAIRMONT       CLOUDY    70  64  83 MISG      29.90S VSB 1/4
GLENCOE        FOG       70  68  92 NW5       29.92R VSB 1/4
FARIBAULT      HAZE      73  68  83 NW3       29.91S VSB 1/2
OWATONNA       CLOUDY    73  72  94 NW5       29.91R FOG
WASECA         FOG       72  68  88 N6        29.92R VSB 1
ALBERT LEA     MOCLDY    72  70  94 CALM      29.90R FOG
$$
MNZ078>079-086>088-094>096-221200-
   Southeast Minnesota

CITY           SKY/WX    TMP DP  RH WIND       PRES   REMARKS
ROCHESTER      FOG       72  70  93 NW5       29.91R VSB 1/4
RED WING       CLOUDY    73  72  94 CALM      29.87S
STANTON        CLOUDY    72  70  93 NW3       29.88F FOG
DODGE CENTER   FOG       72  72 100 NW8       29.90S VSB 1/2
WINONA         MOCLDY    73  72  94 CALM      29.88R
AUSTIN         CLOUDY    70  70 100 CALM      29.89S VSB 1/4
PRESTON        FOG       69  70 100 CALM      29.91R VSB 1/4
$$
ABBREVIATIONS USED IN REMARKS
   TC - TEMPERATURES IN CELSIUS
  WCI - WIND CHILL INDEX
   HX - HEAT INDEX
  VSB - VISIBILITY
$$


USA.gov is the U.S. government's official web portal to all federal, state and local government web resources and services.